Location: Brunembert
(50.7122°N, 1.8935°E)
Time: 01:52:43
(UTC+00:00)

Cosmos 1500 Rocket - Pass Details

Date: 05 August 2021
Orbit: 602 x 632 km, 82.5° (Epoch: 18 September)

Event Time Altitude Azimuth Distance (km) Brightness Sun altitude
Exits shadow 20:03:06 - 120° (ESE) 2,302 5.8 -5.2°
Reaches altitude 10° 20:04:31 10° 105° (ESE) 2,004 5.6 -5.4°
Maximum altitude 20:06:20 12° 81° (E) 1,852 5.6 -5.6°
Drops below altitude 10° 20:08:11 10° 56° (NE) 2,017 6.0 -5.9°
Sets 20:11:40 0° 28° (NNE) 2,936 7.1 -6.3°
